Starlink 11297

operational
NORAD ID: 61060 Int'l Des: 2024-164 Owner: SPXS Country: US Constellation: starlink
LEOCIRCULAR

Über Starlink 11297

Beschreibung wird geladen...

Live-Position

3D-Globus wird geladen...

Nächste Überflüge

Höhenverlauf

Altitude vs Time

uPlot chart will show altitude changes over time

Zweizeiliger Elementsatz

1 61060U 24164L 25258.83650165 .00002627 00000-0 26503-4 0 9993
2 61060 53.1585 93.4215 0000744 95.6486 264.4617 15.69735681 57956
Epoch: 15. Sept. 2025 • Age: 24 hours

Aktueller Status

Höhe 375.7 km
Geschwindigkeit 7.68 km/s
Subsatellitenpunkt -46.03°S, 98.06°E
Startdatum 13. Sept. 2024
Alter 1 years
Typ internet

Technische Details

Klassifizierung Payload
Masse 960.00 kg
Trockenmasse 910.00 kg
Gesamtmasse 960.00 kg
Länge 0.30 m
Durchmesser 4.10 m
Spannweite 29.00 m
Form Box + pan
Hersteller SPXS
Bus-Typ Starlink V2MD
Phasenstatus In Orbit
Besitzer/Staat SPXS/US

Große Konstellationen

Loading constellations...